Location: Lau
(43.0000°N, 0.0833°W)
Time: 14:36:19
(UTC+00:00)

Daily predictions for brighter satellites

Satellite Brightness Start Highest point End
(mag) Time Altitude Azimuth Time Altitude Azimuth Time Altitude Azimuth
Cosmos 2263 4.3 17:27:53 10° SSW 17:33:40 89° ESE 17:39:29 10° NNE
ATLAS 5 CENTAUR R/B 2.3 17:30:50 10° SW 17:34:46 51° NW 17:39:11 10° NNE
Lacrosse 5 2.5 17:33:53 10° WSW 17:38:50 54° NW 17:43:50 10° NE
COSMO-SKYMED 1 3.2 17:35:21 10° NNE 17:39:23 36° E 17:43:23 10° SSE
NOSS 2-1 (C) 3.5 17:36:34 10° SW 17:39:54 59° NW 17:43:20 10° NNE
Cosmos 2056 Rocket 4.2 17:35:11 10° SW 17:40:19 57° WNW 17:45:24 10° NNE
Meteor 2-10 4.4 17:35:51 10° SSW 17:40:58 69° WNW 17:46:01 10° N
ATLAS CENTAUR R/B 4.2 17:38:35 10° WNW 17:41:23 20° WSW 17:44:15 10° SSW
Envisat 4.2 17:37:00 10° S 17:41:53 48° W 17:46:49 10° NNW
USA 276 2.6 17:38:51 10° NW 17:41:58 45° NNE 17:45:02 10° E
Cosmos 676 Rocket 4.0 17:37:22 10° NNW 17:42:35 89° WSW 17:47:47 10° SSE
H-2A R/B 3.5 17:40:24 10° ESE 17:44:01 19° ENE 17:47:41 10° NNE
NOSS 2-1 (D) 3.7 17:41:51 10° SW 17:45:07 50° NW 17:48:30 10° NNE
USA 215 4.2 17:40:46 10° ENE 17:46:22 31° NNE 17:51:57 10° NW
Okean-O 3.4 17:43:41 10° SE 17:47:31 29° ENE 17:51:21 10° N
SAR-Lupe-4 3.5 17:44:07 10° NNE 17:47:41 63° ESE 17:51:15 10° S
NOSS 3-1 (C) 4.3 17:41:00 10° NW 17:48:40 86° WSW 17:57:28 10° SSE
Cosmos 1328 4.2 17:46:30 10° N 17:50:14 39° ENE 17:53:56 10° SSE
SeaSat 1 3.6 17:46:51 10° ESE 17:50:45 24° NE 17:54:39 10° N
COSMOS 2487 3.6 17:48:23 10° N 17:51:13 23° ENE 17:54:01 10° ESE
Cosmos 1850 Rocket 4.4 17:47:08 10° N 17:52:12 44° ENE 17:57:16 10° SE
H-2A R/B 4.3 17:50:35 10° N 17:54:09 27° WNW 17:57:39 10° SW
NOAA 11 4.2 17:50:19 10° SSE 17:55:47 86° ENE 18:01:16 10° NNW
Cosmos 1452 Rocket 3.5 17:51:58 10° S 17:57:11 72° ESE 18:02:27 10° NNE
Cosmos 1300 3.9 17:55:11 10° SE 17:58:08 22° E 18:01:06 10° NE
YAOGAN 1 3.4 17:55:00 10° SE 17:58:43 29° ENE 18:02:28 10° N
Cosmos 1825 Rocket 4.1 17:55:21 10° N 17:59:30 36° ENE 18:03:36 10° SE
Cosmos 2098 Rocket 3.0 17:57:32 10° NNW 18:00:56 57° W 18:03:52 10° S
Cosmos 304 Rocket 4.0 17:57:30 10° SSW 18:02:16 75° WNW 18:07:04 10° NNE
Cosmos 1656 Rocket 4.1 17:59:22 10° SSW 18:04:53 67° WNW 18:10:31 10° NNE
Cosmos 1400 Rocket 4.4 18:02:46 10° SE 18:05:16 16° E 18:05:30 16° E
SAR-Lupe-1 4.1 18:02:00 10° NNE 18:05:37 83° WNW 18:09:11 10° SSW
Cosmos 1726 4.3 18:02:29 10° SW 18:05:46 29° WNW 18:09:06 10° NNW
CZ-2C R/B 3.7 18:01:21 10° SE 18:06:43 40° ENE 18:12:04 10° N
Cosmos 2369 Rocket 3.7 18:03:26 10° WSW 18:08:38 37° WNW 18:13:55 10° N
Cosmos 2297 Rocket 3.7 18:06:42 10° N 18:10:20 17° NE 18:12:08 15° ENE
Cosmos 2266 Rocket 4.0 18:05:38 10° N 18:11:50 89° W 18:18:08 10° S
Cosmos 1689 Rocket 1.9 18:09:40 10° NNE 18:12:34 86° W 18:15:26 10° SSW
Cosmos 1758 Rocket 3.5 18:10:24 10° N 18:14:51 70° E 18:19:13 10° SSE
Cosmos 1726 Rocket 3.9 18:12:02 10° SSE 18:16:03 39° E 18:20:06 10° NNE
Cosmos 1818 4.1 18:11:52 10° SW 18:17:13 62° NW 18:22:39 10° NNE
Cosmos 1953 4.4 18:19:21 10° SW 18:22:50 29° WNW 18:26:21 10° NNW
Helios 1A Rocket 2.8 18:19:06 10° SSE 18:23:14 82° ENE 18:27:23 10° NNW
PSLV R/B 4.0 18:19:45 10° NNE 18:23:58 85° WNW 18:28:07 10° SSW
Meteor 2-21 4.4 18:20:35 10° N 18:26:48 85° E 18:32:55 10° S
Meteor 2-14 Rocket 4.4 18:20:39 10° N 18:26:51 81° E 18:32:58 10° S
SKYMED 2 3.9 18:23:12 10° N 18:27:32 67° WNW 18:31:49 10° SSW
Cosmos 1606 Rocket 3.4 18:24:27 10° S 18:28:44 71° E 18:33:06 10° NNE
Cosmos 2219 4.3 18:24:57 10° N 18:29:35 24° NE 18:30:54 22° ENE
SL-4 R/B 2.8 18:27:39 10° W 18:31:00 38° NNW 18:33:10 20° NE
Geosat 4.0 18:28:37 10° NNE 18:33:40 83° WNW 18:38:41 10° SSW
Gbstr 26 Del rocket 4.3 18:28:56 10° WNW 18:35:39 90° NE 18:41:38 19° SE
Cosmos 44 4.0 18:32:16 10° S 18:35:51 28° ESE 18:35:51 28° ESE
GEOS 3 Rocket 3.7 18:32:00 10° SE 18:37:18 82° SW 18:42:43 10° NW
Cosmos 1340 4.2 18:39:55 10° N 18:41:40 21° NNE 18:41:40 21° NNE
S3M 4.5 18:39:18 10° SSE 18:44:38 33° E 18:49:59 10° NNE
Cosmos 2058 Rocket 3.1 18:41:57 10° S 18:46:16 53° E 18:50:39 10° NNE
Cosmos 1331 Rocket 3.8 18:44:34 10° SSW 18:49:44 81° ESE 18:54:54 10° NNE
Cosmos 2228 3.4 18:46:05 10° SSW 18:50:17 62° W 18:54:31 10° N
Cosmos 292 Rocket 3.6 18:50:59 10° S 18:55:43 67° ESE 18:59:05 19° NNE
Cosmos 1953 Rocket 3.5 18:51:36 10° N 18:56:00 83° W 19:00:24 10° S
Meteor 2-16 Rocket 4.4 18:52:19 10° N 18:58:26 85° W 19:04:31 10° S
MOS 1 Rocket 3.1 18:55:54 10° NNE 19:00:26 79° ESE 19:05:13 10° S
CZ-4 R/B 2.3 18:56:56 10° S 19:00:45 47° W 19:04:33 10° NNW
Aureole 3 Rocket 2.5 19:00:45 10° S 19:04:11 81° NNE 19:08:13 10° N
Cosmos 2227 Rocket 2.9 19:08:36 10° N 19:13:11 36° NE 19:13:11 36° NE
Cosmos 1302 Rocket 3.8 19:09:44 10° S 19:14:56 69° ESE 19:16:04 53° NE
Cosmos 1553 Rocket 3.9 19:11:40 10° S 19:18:04 85° E 19:24:26 10° N
USA 276 4.1 19:15:19 10° WNW 19:17:35 27° WSW 19:17:35 27° WSW
ATLAS 5 CENTAUR R/B 4.4 19:19:07 10° NW 19:20:40 12° NNW 19:22:17 10° N
Lacrosse 5 3.9 19:19:04 10° WNW 19:22:48 20° NNW 19:24:49 16° NNE
H-2A R/B 2.4 19:17:35 10° S 19:22:52 66° WSW 19:28:17 10° NNW
ARGOS 3.1 19:23:47 33° S 19:26:18 83° WSW 19:31:46 10° NNW
Cosmos 968 Rocket 4.5 19:21:22 10° N 19:24:40 33° NNE 19:24:40 33° NNE
SeaSat 1 3.0 19:25:37 29° S 19:27:56 55° WSW 19:32:47 10° NW
USA 215 3.2 19:27:26 56° E 19:28:41 67° NE 19:35:10 10° NW
CSL-04 Rocket 4.4 19:27:09 10° S 19:32:34 53° W 19:38:01 10° NNW
ATLAS 2AS CENTAUR R/B 4.4 19:27:51 10° NNW 19:33:12 20° NNE 19:34:19 19° NNE
Cosmos 1400 Rocket 4.1 19:37:27 10° SSW 19:47:34 - N 19:41:21 41° WNW
Cosmos 1745 Rocket 3.9 19:38:15 10° N 19:44:32 86° W 19:45:39 63° S
Cosmos 2297 Rocket 2.6 19:49:29 10° NNW 19:53:58 57° NNW 19:53:58 57° NNW
Ariane Rocket 4.4 20:06:54 33° NNW 20:06:54 33° NNW 20:09:44 10° NNW
Milstar 3 4.2 20:05:54 10° SW 20:09:50 25° SSW 20:09:50 25° SSW
DEBRIS 4.4 19:56:12 10° WSW 20:12:15 71° NNW 20:12:15 71° NNW
Cosmos 2219 4.0 20:08:29 10° NNW 20:12:52 48° WNW 20:12:52 48° WNW
Cosmos 2227 Rocket 4.4 20:52:47 10° NW 20:55:02 22° WNW 20:55:02 22° WNW
